Regional Weather Roundup
Issued by NWS Albany, NY

Home | Current Version | Previous Version | Text Only | Print | Product List | Glossary On
Versions: 1 2 3 4 5 6 7 8 9 10 11 12 13 14 15 16 17 18 19 20 21 22 23 24 25 26 27 28 29 30 31 32 33 34 35 36 37 38 39 40 41 42 43 44 45 46 47 48 49 50
414
ASUS41 KALY 230810
RWRALY

NEW YORK STATE HOURLY WEATHER ROUNDUP
NATIONAL WEATHER SERVICE ALBANY NY
400 AM EDT SAT JUL 23 2016

NOTE: "FAIR" INDICATES FEW OR NO CLOUDS BELOW 12,000 FEET WITH NO
SIGNIFICANT WEATHER AND/OR NO OBSTRUCTIONS TO VISIBILITY.

NYZ032-033-038>043-046>054-057>066-NYZ062>081-082-084-230900-
EAST


CITY           SKY/WX    TMP DP  RH WIND       PRES   REMARKS
ALBANY         CLEAR     76  64  66 W13       29.78F
GLENS FALLS    PTCLDY    67  62  84 CALM      29.77R
POUGHKEEPSIE   CLEAR     72  68  87 CALM      29.81R
NEWBURGH       CLEAR     73  68  83 W9        29.86R
MONTGOMERY     CLEAR     70  65  84 W5        29.84S
WHITE PLAINS   PTCLDY    79  66  64 NW9       29.83R
ISLIP          CLEAR     76  71  85 W8        29.80S
NEW YORK CITY  PTCLDY    84  66  54 NW16      29.81S
CENTRAL PARK   CLEAR     82  64  54 NW6       29.86R
$$

NYZ005>009-017-018-044>046-055-056-230900-
CENTRAL


CITY           SKY/WX    TMP DP  RH WIND       PRES   REMARKS
FULTON         PTCLDY    75  62  64 W7        29.84R
SYRACUSE       CLEAR     73  59  61 W10       29.83R
ROME           CLEAR     65  64  97 CALM      29.84R
ELMIRA         CLEAR     69  63  81 W5        29.90S
BINGHAMTON     CLEAR     71  61  70 W5        29.92S
MONTICELLO     CLEAR     70  63  78 W6        29.91S
$$

NYZ026>034-041>043-087-230900-
NORTH


CITY           SKY/WX    TMP DP  RH WIND       PRES   REMARKS
WATERTOWN      CLOUDY    70  63  78 SW6       29.81R
FORT DRUM      NOT AVBL
MASSENA        CLOUDY    66  61  84 SW6       29.77S
SARANAC LAKE   CLEAR     58  56  93 CALM      29.82S FOG
PLATTSBURGH    MOCLDY    66  65  96 CALM      29.75S
$$

NYZ001>004-010>016-019>021-085-230900-
WEST


CITY           SKY/WX    TMP DP  RH WIND       PRES   REMARKS
NIAGARA FALLS  CLEAR     71  57  61 W6        29.90R
BUFFALO        PTCLDY    72  70  93 SW6       29.91R
DUNKIRK        CLEAR     72  70  93 SW5       29.93S
JAMESTOWN      CLEAR     72  66  83 N5        29.99S
WELLSVILLE     CLEAR     69  65  86 W10       30.00S
ROCHESTER      CLEAR     70  65  84 W6        29.88S
PENN YAN       CLEAR     69  62  78 S7        29.91R
$$

             KEY
       WCI = WIND CHILL INDEX
       VSB = VISIBILITY
       HX  = HEAT INDEX
$$




USA.gov is the U.S. government's official web portal to all federal, state and local government web resources and services.